Stations météo

Publicité
Dax, France (7603): Température de l'air & dewpoint: 15.10.2019 06:00:00 - 21.10.2019 06:00:00 (CEST)Dax, France (7603): Température de l'air 5cm: 15.10.2019 06:00:00 - 21.10.2019 06:00:00 (CEST)Dax, France (7603): Température de l'air -20cm & Température de l'air -100cm: 15.10.2019 06:00:00 - 21.10.2019 06:00:00 (CEST)Dax, France (7603): Vitesse du vent & gusts: 15.10.2019 06:00:00 - 21.10.2019 06:00:00 (CEST)Dax, France (7603): Direction du vent: 15.10.2019 06:00:00 - 21.10.2019 06:00:00 (CEST)Dax, France (7603): reduced air pressure: 15.10.2019 06:00:00 - 21.10.2019 06:00:00 (CEST)Dax, France (7603): visibility: 15.10.2019 06:00:00 - 21.10.2019 06:00:00 (CEST)Dax, France (7603): Ensoleillement: 15.10.2019 06:00:00 - 21.10.2019 06:00:00 (CEST)Dax, France (7603): Quantités de précipitations: 15.10.2019 06:00:00 - 21.10.2019 06:00:00 (CEST)
Date & Time tt [°C] td [°C] tt 5cm [°C] tt -20cm [°C] tt -100cm [°C] ff [km/h] ff [knt] fx [km/h] fx [knt] dd ppp [hPa] vv [km] sd [min] rr [mm]
21.10.2019 06:00:00 9,8 9,3 8,7 17,3 19,0 3 2 6 4 S 1016,7 31 0 0,0
21.10.2019 05:00:00 10,0 9,5 9,2 17,3 19,0 5 3 10 5 SSE 1016,4 21 0 0,0
21.10.2019 04:00:00 - - - - - - - - - - - - - -
21.10.2019 03:00:00 - - - - - - - - - - - - - -
21.10.2019 02:00:00 - - - - - - - - - - - - - -
21.10.2019 01:00:00 - - - - - - - - - - - - - -
21.10.2019 00:00:00 - - - - - - - - - - - - - -
20.10.2019 23:00:00 - - - - - - - - - - - - - -
20.10.2019 22:00:00 12,1 11,3 11,5 17,8 19,1 10 5 14 8 S 1013,4 13 0 0,0
20.10.2019 21:00:00 - - - - - - - - - - - - - -
20.10.2019 20:00:00 11,9 11,0 10,9 18,0 19,1 4 2 23 12 W 1011,9 3,7 0 5,1
20.10.2019 19:00:00 12,4 11,5 11,8 18,0 19,1 5 3 20 11 NW 1010,6 7 0 6,5
20.10.2019 18:00:00 13,2 12,1 12,6 18,0 19,1 10 5 31 17 W 1009,6 3,2 0 0,6
20.10.2019 17:00:00 13,5 11,4 13,2 18,0 19,1 14 8 32 17 W 1009,0 8 5 0,0
20.10.2019 16:00:00 15,5 12,8 14,1 18,0 19,1 17 9 40 22 W 1008,0 12 33 0,2
20.10.2019 15:00:00 15,2 13,6 14,3 17,9 19,1 18 10 30 16 WSW 1007,4 10 13 2,2
20.10.2019 14:00:00 15,3 13,5 14,9 17,9 19,0 11 6 44 24 WSW 1007,1 6 5 0,0
20.10.2019 13:00:00 15,7 13,2 15,0 17,9 19,1 24 13 49 26 WSW 1006,5 13 36 0,0
20.10.2019 12:00:00 15,1 13,6 14,4 17,9 19,1 22 12 41 22 SW 1005,9 1,8 21 0,6
20.10.2019 11:00:00 15,4 13,8 14,6 17,9 19,0 15 8 39 21 W 1005,2 34 2 0,0
20.10.2019 10:00:00 14,5 12,9 13,5 18,0 19,1 22 12 56 30 SSW 1003,2 18 0 0,0
20.10.2019 09:00:00 14,5 13,0 13,3 18,1 19,1 26 14 45 24 SSW 1002,8 21 0 0,6
20.10.2019 08:00:00 14,2 13,2 13,5 18,1 19,1 19 10 34 18 SW 1002,0 4,8 0 2,0
20.10.2019 07:00:00 14,0 13,5 12,2 18,2 19,1 10 5 23 12 WSW 1001,3 11 0 0,2
20.10.2019 06:00:00 13,4 12,9 12,4 18,2 19,1 4 2 15 8 SSE 1000,5 1,7 0 0,0
20.10.2019 05:00:00 13,9 13,3 13,5 18,3 19,1 3 2 29 15 N 1000,6 7 0 0,6
20.10.2019 04:00:00 14,0 13,5 13,5 18,3 19,1 5 3 10 5 ENE 1001,6 2,1 0 1,4
20.10.2019 03:00:00 14,1 13,5 13,6 18,4 19,1 3 2 10 5 ENE 1001,9 0,8 0 0,0
20.10.2019 02:00:00 14,2 13,4 13,7 18,4 19,1 8 5 14 7 WNW 1002,7 9 0 0,0
20.10.2019 01:00:00 14,5 13,2 13,7 18,5 19,1 3 1 18 10 NNE 1002,4 12 0 0,2
20.10.2019 00:00:00 14,8 13,2 14,0 18,5 19,1 7 4 11 6 NNE 1002,6 19 0 0,4
19.10.2019 23:00:00 15,3 13,3 14,1 18,6 19,1 8 4 14 8 WNW 1003,2 3,2 0 0,6
19.10.2019 22:00:00 16,4 12,9 16,2 18,6 19,1 9 5 17 9 NNE 1002,6 3,8 0 0,0
19.10.2019 21:00:00 16,9 13,0 15,7 18,6 19,1 6 3 11 6 NNE 1002,7 6 0 0,0
19.10.2019 20:00:00 18,3 12,7 17,6 18,6 19,1 6 4 16 9 NE 1003,2 6 0 0,0
19.10.2019 19:00:00 19,1 13,3 18,2 18,5 19,1 3 2 16 8 NW 1003,2 24 0 0,0
19.10.2019 18:00:00 20,2 12,4 20,4 18,3 19,1 4 2 10 6 NNW 1003,7 22 26 0,0
19.10.2019 17:00:00 20,6 11,5 21,8 18,2 19,1 7 4 12 7 N 1003,9 23 12 0,0
19.10.2019 16:00:00 20,8 12,2 21,5 18,1 19,1 6 3 13 7 NW 1004,4 23 6 0,0
19.10.2019 15:00:00 21,2 12,1 22,3 17,9 19,1 8 4 14 7 W 1004,8 25 28 0,0
19.10.2019 14:00:00 21,8 13,4 23,8 17,8 19,1 4 2 19 11 W 1005,6 35 33 0,0
19.10.2019 13:00:00 20,4 12,4 19,7 17,7 19,1 2 1 12 6 N 1006,3 13 35 0,0
19.10.2019 12:00:00 17,9 15,5 18,1 17,7 19,1 5 3 8 5 ESE 1006,8 21 13 0,0
19.10.2019 11:00:00 16,2 14,6 15,3 17,7 19,1 8 5 11 6 ESE 1007,4 12 19 0,0
19.10.2019 10:00:00 14,6 14,1 13,9 17,8 19,1 3 1 10 5 NE 1007,5 6 5 0,0
19.10.2019 09:00:00 14,0 13,5 13,5 17,8 19,1 4 2 11 6 SE 1007,3 3,9 0 0,0
19.10.2019 08:00:00 13,9 13,4 13,5 17,8 19,1 3 1 12 7 ESE 1007,4 7 0 0,2
19.10.2019 07:00:00 14,1 13,6 13,7 17,9 19,1 6 3 12 6 SE 1007,8 8 0 0,0
19.10.2019 06:00:00 14,1 13,6 13,6 17,9 19,2 9 5 13 7 SSE 1007,5 15 0 0,0
19.10.2019 05:00:00 14,2 13,7 13,6 17,9 19,1 4 2 8 4 SSE 1008,3 5 0 0,0
19.10.2019 04:00:00 14,5 14,0 14,0 18,0 19,1 4 2 15 8 SSE 1008,4 12 0 0,0
19.10.2019 03:00:00 14,4 13,9 13,8 18,0 19,1 8 4 15 8 E 1009,2 6 0 1,4
19.10.2019 02:00:00 14,4 13,8 13,8 18,1 19,2 3 2 13 7 SE 1009,9 7 0 2,8
19.10.2019 01:00:00 14,4 13,6 13,8 18,1 19,2 5 3 11 6 E 1009,7 12 0 0,0
19.10.2019 00:00:00 14,6 13,6 13,3 18,2 19,2 3 2 6 3 E 1010,4 9 0 0,0
18.10.2019 23:00:00 15,0 13,7 14,0 18,2 19,2 3 2 6 3 ENE 1011,1 11 0 0,0
18.10.2019 22:00:00 15,1 14,0 14,5 18,2 19,2 3 2 9 5 E 1011,6 12 0 0,0
18.10.2019 21:00:00 15,7 14,1 14,9 18,2 19,1 5 3 6 4 ESE 1012,1 12 0 0,0
18.10.2019 20:00:00 16,2 14,2 15,5 18,2 19,2 0 0 4 2 N 1012,6 14 0 0,0
18.10.2019 19:00:00 16,9 13,8 16,8 18,1 19,2 0 0 6 4 N 1013,2 10 0 0,0
18.10.2019 18:00:00 17,2 13,1 17,4 18,1 19,2 3 2 9 5 SE 1013,6 18 0 0,0
18.10.2019 17:00:00 17,7 12,8 17,4 18,0 19,2 3 2 11 6 SSW 1014,4 21 0 0,0
18.10.2019 16:00:00 17,5 13,4 17,4 17,9 19,2 7 4 10 6 WSW 1014,9 10 0 0,0
18.10.2019 15:00:00 18,3 14,0 19,3 17,8 19,2 6 3 11 6 WSW 1015,1 12 0 0,0
18.10.2019 14:00:00 17,9 14,8 17,0 17,8 19,2 5 3 13 7 SSW 1015,6 12 0 0,0
18.10.2019 13:00:00 16,4 14,9 16,0 17,8 19,2 8 4 17 9 S 1016,4 10 0 0,0
18.10.2019 12:00:00 15,8 14,7 15,1 17,8 19,2 9 5 13 7 SSW 1016,5 13 0 0,0
18.10.2019 11:00:00 15,3 14,2 15,0 17,8 19,2 5 3 11 6 WSW 1016,5 10 0 0,0
18.10.2019 10:00:00 14,8 14,3 13,9 17,8 19,2 8 5 13 7 S 1016,2 10 0 0,2
18.10.2019 09:00:00 14,4 13,9 14,1 17,9 19,2 8 4 23 12 WSW 1016,1 1,5 0 1,4
18.10.2019 08:00:00 14,8 14,5 14,0 17,9 19,2 6 3 13 7 W 1015,5 1,0 0 2,2
18.10.2019 07:00:00 14,1 13,8 13,1 17,9 19,2 3 2 6 3 SSW 1014,9 9 0 1,0
18.10.2019 06:00:00 13,3 12,8 12,9 18,0 19,2 3 1 9 5 SSE 1014,2 8 0 0,0
18.10.2019 05:00:00 13,2 12,7 12,1 18,1 19,2 0 0 3 2 N 1013,9 14 0 0,0
18.10.2019 04:00:00 13,1 12,6 12,1 18,1 19,2 0 0 6 3 N 1014,1 2,1 0 0,0
18.10.2019 03:00:00 13,1 12,6 12,0 18,2 19,2 0 0 5 3 N 1014,1 8 0 0,0
18.10.2019 02:00:00 13,8 13,2 13,2 18,3 19,3 0 0 4 2 N 1014,3 8 0 0,0
18.10.2019 01:00:00 14,4 13,8 13,4 18,3 19,3 2 1 5 3 W 1014,5 9 0 0,0
18.10.2019 00:00:00 14,3 13,5 13,1 18,4 19,3 0 0 4 2 N 1014,3 11 0 0,0
17.10.2019 23:00:00 15,1 13,8 13,9 18,4 19,3 0 0 5 3 N 1014,9 13 0 0,0
17.10.2019 22:00:00 16,2 14,6 15,4 18,4 19,3 2 1 13 7 WNW 1015,0 13 0 0,0
17.10.2019 21:00:00 17,3 14,0 16,7 18,4 19,3 5 3 16 9 W 1015,0 21 0 0,0
17.10.2019 20:00:00 18,6 14,1 18,0 18,3 19,3 11 6 20 11 NW 1014,2 29 0 0,0
17.10.2019 19:00:00 21,8 13,9 21,0 18,2 19,3 0 0 8 5 N 1013,5 40 28 0,0
17.10.2019 18:00:00 23,6 11,9 24,6 18,1 19,3 6 4 26 14 W 1013,4 33 60 0,0
17.10.2019 17:00:00 23,7 12,3 24,7 17,9 19,3 9 5 18 10 W 1013,4 20 56 0,0
17.10.2019 16:00:00 23,4 12,1 24,2 17,8 19,3 10 5 24 13 W 1013,5 20 57 0,0
17.10.2019 15:00:00 23,2 12,2 24,3 17,6 19,3 11 6 27 14 W 1014,0 20 54 0,0
17.10.2019 14:00:00 22,5 11,6 24,2 17,5 19,3 16 9 27 14 WSW 1014,4 20 58 0,0
17.10.2019 13:00:00 21,5 12,6 21,0 17,5 19,4 11 6 23 13 WSW 1014,6 20 54 0,0
17.10.2019 12:00:00 17,6 13,7 15,6 17,5 19,4 8 5 14 7 SSE 1014,8 23 24 0,0
17.10.2019 11:00:00 15,5 12,6 14,4 17,5 19,4 6 3 12 6 S 1014,5 20 0 0,0
17.10.2019 10:00:00 15,1 12,2 13,3 17,5 19,4 3 2 8 5 SSE 1013,9 15 0 0,0
17.10.2019 09:00:00 13,8 12,7 13,1 17,5 19,4 5 3 14 8 SE 1013,7 10 0 1,2
17.10.2019 08:00:00 14,1 12,7 13,1 17,5 19,4 3 2 14 8 S 1013,7 2,8 0 1,4
17.10.2019 07:00:00 15,8 11,4 13,6 17,5 19,4 10 6 20 11 WSW 1013,3 12 0 0,0
17.10.2019 06:00:00 14,0 12,7 13,6 17,6 19,5 0 0 9 5 N 1012,8 18 0 0,0
17.10.2019 05:00:00 14,1 12,3 13,7 17,6 19,5 5 3 8 5 ESE 1012,4 22 0 0,0
17.10.2019 04:00:00 14,1 12,3 13,6 17,6 19,5 8 4 11 6 SE 1012,4 21 0 0,2
17.10.2019 03:00:00 14,2 12,4 13,6 17,7 19,5 5 3 9 5 SSE 1012,7 22 0 0,0
17.10.2019 02:00:00 13,9 12,1 12,9 17,7 19,5 3 1 8 4 SE 1012,9 26 0 0,0
17.10.2019 01:00:00 14,2 12,4 13,2 17,7 19,5 4 2 9 5 SSE 1013,5 20 0 0,0
17.10.2019 00:00:00 14,7 12,2 13,8 17,7 19,5 7 4 10 6 SE 1013,7 22 0 0,0
16.10.2019 23:00:00 16,8 10,4 15,8 17,7 19,5 0 0 8 4 N 1013,7 27 0 0,0
16.10.2019 22:00:00 16,5 11,0 15,7 17,7 19,5 7 4 10 6 ESE 1013,5 28 0 0,0
16.10.2019 21:00:00 17,9 10,3 16,1 17,7 19,6 3 2 11 6 SSE 1013,3 33 0 0,0
16.10.2019 20:00:00 18,8 11,6 17,5 17,6 19,6 6 3 8 5 SSE 1012,9 28 0 0,0
16.10.2019 19:00:00 20,5 10,9 20,5 17,5 19,6 0 0 8 4 N 1013,0 30 10 0,0
16.10.2019 18:00:00 21,7 9,2 22,2 17,4 19,6 5 3 22 12 SSW 1012,7 - 8 0,0
16.10.2019 17:00:00 22,3 8,4 22,7 17,3 19,6 14 7 29 15 SW 1013,3 20 35 0,0
16.10.2019 16:00:00 22,4 10,8 22,3 17,2 19,6 13 7 25 13 SW 1013,5 20 21 0,0
16.10.2019 15:00:00 20,8 9,7 21,0 17,0 19,6 10 5 17 9 SSW 1013,9 20 5 0,0
16.10.2019 14:00:00 19,7 10,7 20,4 17,0 19,6 3 2 18 10 S 1014,2 20 0 0,0
16.10.2019 13:00:00 19,9 10,9 20,8 16,9 19,6 8 4 14 8 SW 1014,7 20 4 0,0
16.10.2019 12:00:00 19,5 10,8 18,3 16,9 19,6 7 4 12 6 SSW 1015,0 - 37 0,0
16.10.2019 11:00:00 16,5 10,3 14,6 16,9 19,6 0 0 7 4 N 1015,1 20 32 0,0
16.10.2019 10:00:00 12,9 9,5 11,5 17,0 19,7 3 2 12 7 ESE 1015,2 20 45 0,0
16.10.2019 09:00:00 10,4 8,3 7,9 17,1 19,7 7 4 13 7 ESE 1014,8 20 19 0,0
16.10.2019 08:00:00 9,0 7,1 7,8 17,1 19,6 6 4 11 6 E 1014,9 20 0 0,0
16.10.2019 07:00:00 8,8 7,2 8,0 17,2 19,7 7 4 10 5 ESE 1014,7 20 0 0,0
16.10.2019 06:00:00 8,9 7,5 7,8 17,3 19,7 7 4 9 5 ESE 1015,1 39 0 0,0
16.10.2019 05:00:00 9,8 7,6 7,9 17,4 19,7 3 2 6 4 SSE 1015,5 38 0 0,0
16.10.2019 04:00:00 8,9 8,1 7,8 17,5 19,7 5 3 7 4 SSE 1015,8 23 0 0,0
16.10.2019 03:00:00 9,2 8,3 8,2 17,6 19,7 5 3 8 5 SSE 1016,4 23 0 0,0
16.10.2019 02:00:00 9,6 8,5 8,4 17,7 19,7 6 3 10 5 SE 1016,7 24 0 0,0
16.10.2019 01:00:00 10,7 9,1 9,5 17,8 19,7 6 3 9 5 SSE 1017,0 34 0 0,0
16.10.2019 00:00:00 10,3 9,1 9,4 17,8 19,7 6 3 9 5 SE 1017,4 22 0 0,0
15.10.2019 23:00:00 10,8 9,6 10,4 17,9 19,8 7 4 14 8 ESE 1017,7 19 0 0,0
15.10.2019 22:00:00 11,5 10,4 10,5 17,9 19,8 6 3 7 4 ESE 1017,8 21 0 0,0
15.10.2019 21:00:00 12,4 11,3 11,2 17,9 19,7 4 2 11 6 S 1017,9 16 0 0,0
15.10.2019 20:00:00 13,5 12,1 12,3 17,9 19,7 6 3 9 5 SSE 1017,8 16 0 0,0
15.10.2019 19:00:00 15,2 12,0 14,8 17,8 19,8 7 4 13 7 SSE 1017,7 23 1 0,0
15.10.2019 18:00:00 16,8 11,3 17,0 17,8 19,8 8 4 19 10 WSW 1017,4 22 11 0,0
15.10.2019 17:00:00 16,0 13,0 - - - 11 6 - - SSW - 10 - -
15.10.2019 16:00:00 15,5 12,4 13,7 17,6 19,8 13 7 23 12 SSW 1017,6 15 11 0,0
15.10.2019 15:00:00 14,3 12,2 13,5 17,5 19,8 18 10 35 19 WSW 1018,1 4,0 4 0,2
15.10.2019 14:00:00 15,6 12,2 15,4 17,5 19,8 19 11 40 22 WSW 1017,7 6 22 0,0
15.10.2019 13:00:00 15,7 12,1 12,7 17,5 19,8 19 11 32 17 WSW 1017,9 10 37 0,0
15.10.2019 12:00:00 12,8 11,9 12,0 17,5 19,8 16 9 39 21 SW 1018,1 6 17 1,4
15.10.2019 11:00:00 12,7 10,8 11,6 17,5 19,8 16 9 27 15 SSW 1017,1 9 26 0,0
15.10.2019 10:00:00 11,9 10,5 10,4 17,7 19,8 21 11 37 20 SW 1016,5 6 20 1,2
15.10.2019 09:00:00 11,1 10,2 10,6 17,8 19,8 9 5 34 19 SW 1016,0 4,0 0 4,3
15.10.2019 08:00:00 11,7 10,6 10,9 17,9 19,8 20 11 32 17 SW 1015,0 8 0 0,8
15.10.2019 07:00:00 11,9 10,8 11,0 18,0 19,8 16 9 27 14 SW 1014,7 8 0 1,0
15.10.2019 06:00:00 11,9 11,0 10,8 18,1 19,8 7 4 27 15 SSW 1014,0 - 0 3,0

tt = Température de l'air
td = dewpoint
tt 5cm = Température de l'air 5cm
tt -20cm = Température de l'air -20cm
tt -100cm = Température de l'air -100cm
ff = Vitesse du vent
fx = gusts
dd = Direction du vent
ppp = reduced air pressure
vv = visibility
sd = Ensoleillement
rr = Quantités de précipitations

stations d'obs. à proximité